Regional Weather Roundup
Issued by NWS Midland/Odessa, TX

Skip options and go directly to product.
Home | Oldest Version | Next Version | Current Version | All | Text Only | Save Text | Print | Product List | Glossary On

Skip product version selection by date and time.   
018
ASUS44 KMAF 130101
RWRMAF
MIDLAND AREA WEATHER ROUNDUP
NATIONAL WEATHER SERVICE MIDLAND TX
700 PM CST FRI FEB 12 2016

...IN SOUTHWEST TEXAS AND SOUTHEAST NEW MEXICO...

CITY           SKY/WX    TMP DP  RH WIND       PRES   REMARKS
ALPINE         CLEAR     62  22  21 N5        30.34R
ANDREWS        FAIR      62  29  29 E8        30.27R
ARTESIA        CLEAR     63  27  25 E3        30.25S
BIG SPRING     CLEAR     61  29  29 NE10      30.29R
CARLSBAD       CLEAR     60  26  27 CALM      30.23R
DRYDEN           N/A     70  18  13 S6        30.19R
FORT STOCKTON  CLEAR     64  26  23 NE5       30.23R
GUAD PASS      CLEAR     58  15  18 NE20      30.32S
HOBBS          CLEAR     59  18  20 SE8       30.26R
MARFA          CLEAR     57  19  22 NE8       30.31R
MIDLAND AIRPK  CLEAR     67  30  25 E6        30.26S
MIDLAND INTL   CLEAR     64  30  27 E10       30.25R
ODESSA         CLEAR     61  30  31 E12       30.26R
PECOS          CLEAR     65  24  21 E3        30.22R
PRESIDIO       FAIR      73  15  10 MISG      30.19S
SEMINOLE       CLEAR     62  27  26 SE8       30.27S
SNYDER           N/A     59  32  36 E6        30.30R
WINK           CLEAR     66  21  18 SE7       30.21R
$$
...OTHER STATIONS IN TEXAS...

CITY           SKY/WX    TMP DP  RH WIND       PRES   REMARKS
ABILENE        CLEAR     61  33  35 E7        30.29R
AMARILLO       CLEAR     51  28  41 SE10      30.32R
AUSTIN         CLEAR     67  44  43 NE9       30.22R
BROWNSVILLE    CLEAR     65  59  81 SE6       30.21R
CORPUS CHRISTI PTCLDY    68  56  65 SE14      30.19R
DALLAS FTW     CLEAR     59  35  40 NE7       30.30R
DEL RIO        CLEAR     76  26  15 E6        30.15R
EL PASO        CLEAR     69  11  10 E3        30.23S
HOUSTON INT    CLEAR     64  54  69 CALM      30.21R
LUBBOCK        CLEAR     54  25  32 SE9       30.30R
SAN ANGELO     CLEAR     65  33  30 NE8       30.25R
SAN ANTONIO    CLEAR     69  47  45 E5        30.21R
WACO           CLEAR     59  37  44 NE7       30.27R
WICHITA FALLS  NOT AVBL
$$
...OTHER LOCATIONS IN NEW MEXICO...

CITY           SKY/WX    TMP DP  RH WIND       PRES   REMARKS
ALAMAGORDO     CLEAR     63  18  17 S5        30.25S
ALBUQUERQUE    CLEAR     63  18  17 CALM      30.29R
CANNON AFB     CLEAR     55  23  29 SE8       30.28R
CLOVIS         CLEAR     54  23  30 SE9       30.30S
HOLLOMAN AFB   CLEAR     67   3   8 SE5       30.23R
ROSWELL        CLEAR     60  21  22 CALM      30.24R
RUIDOSO          N/A     50  16  25 SE9       30.38S
SANTA FE       CLEAR     56  13  18 SW5       30.32R
TRUTH OR CONSE PTCLDY    68   4   8 CALM      30.25S
TUCUMCARI      CLEAR     55  21  26 SE8       30.26R
$$

USA.gov is the U.S. government's official web portal to all federal, state and local government web resources and services.